Flag for Canada Weather past 2 weeks in Charlottetown, Prince Edward Island, Canada

Now
68 °F

Passing clouds.


Feels Like: 68 °F
Forecast: 57 / 73 °F
Wind: 14 mph from South

Location: Charlottetown

Current Time: Jul 3, 2015 at 1:39:42 PM

Latest Report: Jul 3, 2015 at 1:00 PM


Visibility: 15 mi

Pressure: 29.77 "Hg

Humidity: 56%

Dew point: 52 °F

Location of CharlottetownLocation

Historic Weather in Charlottetown — Graph

°F

Charlottetown temperature yesterday

Maximum temperature yesterday: 75 °F (at 2:00 PM)
Minimum temperature yesterday: 63 °F (at 6:00 AM)
Average temperature yesterday: 68 °F

Past Weeks' High & Low Weather Summary

 TemperatureHumidityPressure
High75 °F (Jul 1, 3:00 PM)100% (Jun 19, 6:00 PM)30.20 "Hg (Jun 19, 6:00 PM)
Low39 °F (Jun 27, 6:00 AM)44% (Jun 18, 3:00 PM)29.65 "Hg (Jun 22, 8:00 AM)
Average58 °F80%29.92 "Hg
* Reported Jun 18 12:00 Noon — Jul 3 12:00 Noon, Charlottetown, Weather by CustomWeather, © 2015

Note: Actual official high and low records may vary slightly from our data, if they occured in-between our weather recording intervals... More about our weather records

Advertising

Charlottetown weather history for previous 24 hours

 ConditionsComfort  
Time TempWeatherWind HumidityBarometerVisibility
12:00 PM
Fri, Jul 3
68 °FScattered clouds.10 mph60%29.79 "Hg15 mi
11:00 AM64 °FPartly sunny.7 mph64%29.81 "Hg15 mi
10:00 AM63 °FPartly sunny.9 mph68%29.82 "Hg15 mi
9:00 AM61 °FMostly cloudy.10 mph72%29.83 "Hg15 mi
8:00 AM59 °FMostly cloudy.8 mph82%29.83 "Hg15 mi
7:00 AM59 °FOvercast.5 mph88%29.83 "Hg15 mi
6:00 AM57 °FMostly cloudy.6 mph94%29.82 "Hg15 mi
5:00 AM57 °FOvercast.7 mph88%29.81 "Hg15 mi
4:00 AM59 °FOvercast.8 mph82%29.81 "Hg15 mi
3:00 AM59 °FPassing clouds.8 mph88%29.81 "Hg15 mi
2:00 AM61 °FPassing clouds.10 mph83%29.81 "Hg15 mi
1:00 AM61 °FPassing clouds.9 mph83%29.82 "Hg15 mi
12:00 AM63 °FPassing clouds.13 mph73%29.82 "Hg15 mi
11:00 PM
Thu, Jul 2
64 °FPassing clouds.12 mph73%29.82 "Hg15 mi
10:00 PM64 °FScattered clouds.12 mph73%29.81 "Hg15 mi
9:00 PM66 °FScattered clouds.10 mph68%29.79 "Hg15 mi
8:00 PM70 °FPassing clouds.13 mph57%29.78 "Hg15 mi
7:00 PM72 °FPassing clouds.13 mph53%29.77 "Hg15 mi
6:00 PM73 °FScattered clouds.24 mph50%29.76 "Hg15 mi
5:00 PM73 °FPartly sunny.15 mph61%29.75 "Hg15 mi
4:00 PM73 °FPartly sunny.21 mph65%29.75 "Hg15 mi
3:00 PM75 °FBroken clouds.10 mph69%29.73 "Hg15 mi
2:00 PM75 °FScattered clouds.15 mph69%29.73 "Hg15 mi
1:00 PM73 °FBroken clouds.13 mph74%29.75 "Hg15 mi
Weather by CustomWeather, © 2015

See weather overviewHow to use our weather pages